Regional Weather Roundup
Issued by NWS

Home | Current Version | Previous Version | Text Only | Print | Product List | Glossary Off
Versions: 1 2 3 4 5 6 7 8 9 10 11 12 13 14 15 16 17 18 19 20 21 22 23 24 25 26 27 28 29 30 31 32 33 34 35 36 37 38 39 40 41 42 43 44 45 46 47 48 49 50

000
ASUS45 KCYS 242310
RWRWY

WYOMING REGIONAL WEATHER ROUNDUP
NATIONAL WEATHER SERVICE CHEYENNE WY
500 PM MDT FRI APR 24 2015

NOTE:  "FAIR" INDICATES FEW OR NO CLOUDS BELOW 12,000 FEET
WITH NO SIGNIFICANT WEATHER AND/OR OBSTRUCTIONS TO VISIBILITY.

WYZ001-250000-
YELLOWSTONE NATIONAL PARK

CITY           SKY/WX    TMP DP  RH WIND       PRES   REMARKS
LK YELLOWSTONE   N/A     41  31  67 VRB3      29.74S
W YELLOWSTONE  NOT AVBL

$$
WYZ002>013-054>058-071-098>099-250000-
NORTHERN WYOMING

CITY           SKY/WX    TMP DP  RH WIND       PRES   REMARKS
JACKSON        LGT RAIN  41  37  87 S7        29.74R
CODY           FAIR      64  30  27 E9        29.55F
GREYBULL       FAIR      69  22  16 SW3       29.50F
WORLAND        FAIR      70  23  17 VRB5      29.52S
SHERIDAN       FAIR      64  39  39 N12       29.56S
BUFFALO        FAIR      65  32  29 NE6       29.59S
GILLETTE       FAIR      64  38  38 E16       29.57S
HULETT         FAIR      66  32  28 SE12G20   29.59S
NEWCASTLE      FAIR      54  39  58 MISG      29.60F

$$
WYZ014>020-022>026-101>103-250000-
CENTRAL WYOMING

CITY           SKY/WX    TMP DP  RH WIND       PRES   REMARKS
BIG PINEY      CLOUDY    47  32  56 N12       29.72F
PINEDALE       TSTM      37  36  93 W16G24    29.75R WCI  28
DUBOIS         FAIR      48  25  40 W25       29.65R
LANDER         FAIR      63  29  27 W13       29.57F
RIVERTON       FAIR      61  28  28 S5        29.58F
CASPER         FAIR      66  21  18 SW8       29.57S
DOUGLAS        FAIR      67  25  20 NW10G21   29.57S

$$
WYZ021-027>030-104>119-250000-
SOUTHERN WYOMING

CITY           SKY/WX    TMP DP  RH WIND       PRES   REMARKS
EVANSTON       FAIR      54  28  36 SW24G32   29.71S
KEMMERER       MOCLDY    52  34  50 SW21      29.71F
FORT BRIDGER   CLOUDY    50  32  50 W23G32    29.76R
ROCK SPRINGS   CLOUDY    43  37  79 S13       29.74F
DIXON          CLOUDY    56  24  29 S12G30    29.73R
RAWLINS        FAIR      50  34  54 W40G53    29.70S
SARATOGA       FAIR      57  27  30 W14G23    29.71S
LARAMIE        CLOUDY    48  32  53 W18G26    29.71R
CHEYENNE       FAIR      57  32  38 SW8       29.65F
TORRINGTON     PTSUNNY   65  36  34 NE17G28   29.54S
PINE BLUFFS    DRIZZLE   46  41  81 SW12      29.69R

$$



USA.gov is the U.S. government's official web portal to all federal, state and local government web resources and services.